Location: Champignolles
(47.0543°N, 4.5663°E)
Time: 21:32:08
(UTC+00:00)

Envisat - Pass Details

Date: 08 March 2021
Orbit: 764 x 766 km, 98.1° (Epoch: 16 April)

Event Time Altitude Azimuth Distance (km) Brightness Sun altitude
Rises 18:11:00 0° 226° (SW) 3,224 7.0 -6.5°
Reaches altitude 10° 18:16:08 10° 271° (W) 2,307 7.3 -7.4°
Maximum altitude 18:16:33 10° 275° (W) 2,302 7.3 -7.5°
Drops below altitude 10° 18:16:58 10° 280° (W) 2,309 7.2 -7.5°
Sets 18:22:09 0° 325° (NW) 3,244 6.8 -8.4°
